Dubuque, IA

12:40 PM CST on November 13, 2019 (GMT -0600)
Dubuque Regional

Weather History for KDBQ - September, 2019

Change the Weather History Date:

Tuesday, September 24, 2019

  Actual Average Record
Temperature  
Mean Temperature 69 °F 58 °F  
Max Temperature 81 °F 69 °F 90 °F (1935)
Min Temperature 57 °F 48 °F 28 °F (2012)
Degree Days  
Heating Degree Days 0 7  
Month to date heating degree days 28 99  
Since 1 July heating degree days 37 126  
Cooling Degree Days 4 1  
Month to date cooling degree days 85 56  
Year to date cooling degree days 658 632  
Growing Degree Days 19 (Base 50)    
Moisture  
Dew Point 56 °F    
Average Humidity 70    
Maximum Humidity 100    
Minimum Humidity 39    
Precipitation  
Precipitation T in 0.12 in 2.38 in (1994)
Month to date precipitation 12.12 2.84  
Year to date precipitation 43.25 28.82  
Snow  
Snow 0.00 in 0.00 in - ()
Month to date snowfall 0.0 0.0  
Since 1 July snowfall 0.0 0.0  
Since 1 September snowfall 0.0 0.0  
Snow Depth 0.00 in    
Sea Level Pressure  
Sea Level Pressure 29.85 in    
Wind  
Wind Speed 10 mph ()    
Max Wind Speed 26 mph    
Max Gust Speed 38 mph    
Visibility 10.0 miles    
Events      
T = Trace of Precipitation, MM = Missing Value Source: Averaged Metar Reports

Daily Weather History Graph

Daily Weather History Graph

Search for Another Location

Airport or City:

Astronomy

Sep. 24, 2019 Rise Set
Actual Time 6:52 AM CDT 6:56 PM CDT
Civil Twilight 6:24 AM CDT 7:24 PM CDT
Nautical Twilight 5:51 AM CDT 7:57 PM CDT
Astronomical Twilight 5:17 AM CDT 8:31 PM CDT
Moon 1:30 AM CDT (9/24) 4:49 PM CDT (9/24)
Length of Visible Light 13h 00m
Length of Day
12h 04m
Waning Crescent, 23% of the Moon is Illuminated
Sep 24
Waning Crescent
Sep 28
New
Oct 5
First Quarter
Oct 13
Full
Oct 21
Last Quarter

Hourly Weather History & Observations

Time (CDT) Temp. Heat Index Dew Point Humidity Pressure Visibility Wind Dir Wind Speed Gust Speed Precip Events Conditions
12:53 AM 59.0 °F - 55.9 °F 90% 29.99 in 10.0 mi SSW 5.8 mph - N/A   Scattered Clouds
1:53 AM 59.0 °F - 57.0 °F 93% 29.98 in 10.0 mi SSW 3.5 mph - N/A   Mostly Cloudy
2:53 AM 57.9 °F - 55.9 °F 93% 29.97 in 10.0 mi SSW 6.9 mph - N/A   Clear
3:53 AM 59.0 °F - 57.0 °F 93% 29.96 in 10.0 mi SSW 9.2 mph - N/A   Clear
4:53 AM 57.9 °F - 57.0 °F 97% 29.95 in 10.0 mi SSW 9.2 mph - N/A   Clear
5:53 AM 57.0 °F - 57.0 °F 100% 29.95 in 10.0 mi SSW 6.9 mph - N/A   Clear
6:53 AM 57.9 °F - 57.0 °F 97% 29.95 in 10.0 mi SSW 8.1 mph - N/A   Clear
7:53 AM 60.1 °F - 59.0 °F 96% 29.95 in 10.0 mi SSW 9.2 mph - N/A   Clear
8:53 AM 63.0 °F - 61.0 °F 93% 29.94 in 10.0 mi SSW 10.4 mph - N/A   Clear
9:53 AM 68.0 °F - 61.0 °F 78% 29.92 in 10.0 mi SSW 11.5 mph - N/A   Scattered Clouds
10:53 AM 73.0 °F - 60.1 °F 64% 29.91 in 10.0 mi SSW 16.1 mph 23.0 mph N/A   Clear
11:53 AM 75.9 °F - 57.0 °F 52% 29.87 in 10.0 mi SW 17.3 mph 25.3 mph N/A   Clear
12:53 PM 78.1 °F - 55.9 °F 46% 29.85 in 10.0 mi SSW 20.7 mph 28.8 mph N/A   Clear
1:53 PM 79.0 °F - 55.9 °F 45% 29.82 in 10.0 mi SSW 17.3 mph 32.2 mph N/A   Clear
2:53 PM 80.1 °F 79.9 °F 53.1 °F 39% 29.79 in 10.0 mi SW 21.9 mph 34.5 mph N/A   Clear
3:53 PM 80.1 °F 80.1 °F 55.0 °F 42% 29.77 in 10.0 mi SSW 19.6 mph 32.2 mph N/A   Clear
4:53 PM 79.0 °F - 55.0 °F 44% 29.75 in 10.0 mi SSW 20.7 mph 29.9 mph N/A   Clear
5:53 PM 75.9 °F - 57.0 °F 52% 29.75 in 10.0 mi South 12.7 mph - N/A   Clear
6:53 PM 71.1 °F - 55.0 °F 57% 29.74 in 10.0 mi South 13.8 mph - N/A   Clear
7:53 PM 69.1 °F - 55.0 °F 61% 29.71 in 10.0 mi South 16.1 mph - N/A   Clear
8:53 PM 69.1 °F - 54.0 °F 58% 29.69 in 10.0 mi SSW 19.6 mph - N/A   Clear
9:53 PM 68.0 °F - 54.0 °F 61% 29.69 in 10.0 mi SSW 18.4 mph 28.8 mph N/A   Clear
10:53 PM 66.9 °F - 54.0 °F 63% 29.69 in 10.0 mi SSW 23.0 mph 29.9 mph N/A   Clear
11:53 PM 66.0 °F - 55.0 °F 68% 29.70 in 10.0 mi SSW 18.4 mph - N/A   Clear